Location: Ferintosh
(52.7647°N, 112.9692°W)
Time: 13:47:31
(UTC+00:00)

Transit 2A - Pass Details

Date: 21 May 2024
Orbit: 592 x 959 km, 66.7° (Epoch: 23 June)

Event Time Altitude Azimuth Distance (km) Brightness Sun altitude
Rises 15:42:27 0° 316° (NW) 3,388 8.9 36.2°
Reaches altitude 10° 15:45:02 10° 307° (NW) 2,505 8.3 36.5°
Maximum altitude 15:50:12 34° 245° (WSW) 1,468 7.4 37.3°
Drops below altitude 10° 15:55:40 10° 184° (S) 2,652 9.0 38.1°
Sets 15:58:29 0° 175° (S) 3,615 9.7 38.5°
